Cloud_Cover
100 100 100 100 100 100 100 100 100 100 100 100 100 100 100 100 42 96 17 40 49 96 100 100 100 100 100 100 100 100 100 100 100 100 100 100 100 100 100 100 100 100 100
100 100 100 100 100 100 100 100 100 100 100 100 100 100 100 100 100 70 78 99 100 100 100 100 98 100 100 100 100 100 100 100 100 100 100 100 100 100 100 100 100 100 100
100 100 100 100 100 100 100 100 100 100 100 100 100 100 100 100 100 100 100 100 100 100 100 100 100 100 100 72 78 100 100 100 100 100 100 100 100 100 100 100 100 100 100
100 100 100 100 100 100 100 100 100 100 100 100 100 100 99 100 100 94 100 100 100 100 100 70 54 98 100 100 100 100 100 100 100 100 100 100 100 100 100 100 100 100 100
100 98 100 100 100 100 100 100 100 100 100 100 100 100 91 52 38 47 24 100 100 100 100 44 37 34 53 100 100 100 100 100 100 100 100 100 100 100 100 100 100 100 100
100 100 100 100 100 100 100 100 100 100 100 100 50 7 63 53 52 98 100 100 100 100 78 42 42 27 16 34 100 100 100 100 100 100 100 100 100 100 100 100 100 100 100
100 100 100 100 100 100 100 100 100 94 97 100 100 100 89 80 41 63 100 100 100 100 100 93 100 100 96 69 50 46 62 82 94 100 100 100 100 100 100 100 100 100 100
100 100 100 100 100 100 100 99 86 100 100 100 100 100 100 100 79 66 93 100 100 100 100 100 100 98 100 100 100 100 100 100 100 98 100 100 100 100 100 100 100 100 100
100 100 95 92 100 100 100 100 89 100 100 100 100 100 100 100 100 100 100 100 100 100 100 97 100 100 100 100 100 100 100 100 100 87 97 92 100 100 100 100 100 100 100
100 100 100 100 100 89 100 100 100 100 100 100 100 100 100 100 100 58 100 100 100 100 100 100 100 100 100 100 100 100 100 100 100 100 100 100 100 100 99 100 100 100 100
97 91 72 100 100 100 100 100 100 100 100 100 100 95 11 30 100 77 100 100 100 100 100 100 100 100 100 100 100 100 100 100 98 100 100 100 100 100 100 100 100 100 100
100 93 83 100 100 100 100 100 100 86 82 100 100 97 42 43 99 47 78 100 100 100 100 100 100 100 100 100 100 100 100 100 100 100 100 100 100 100 100 100 100 100 100
100 100 95 100 100 100 96 6 10 28 5 82 74 75 78 88 74 61 12 39 87 100 100 100 100 100 100 100 100 100 100 100 100 100 100 100 100 100 100 100 100 100 100
100 100 100 100 100 64 7 27 64 81 89 90 88 92 100 93 100 100 100 51 6 8 100 100 100 100 100 100 100 100 100 100 100 100 100 100 100 100 100 100 100 100 100
100 100 97 100 99 93 79 99 86 28 47 100 100 84 78 42 86 96 100 83 54 24 89 100 100 100 100 100 100 100 100 100 100 100 100 100 100 100 100 100 100 100 100
100 56 94 92 87 100 86 100 43 41 9 55 31 57 9 32 33 21 45 50 16 5 5 93 100 100 100 100 100 100 100 100 100 100 100 100 100 100 100 100 100 100 100
50 100 100 100 100 100 88 100 77 12 35 13 56 11 30 89 70 78 90 73 6 10 82 74 76 59 99 100 100 100 100 100 100 100 100 100 100 100 100 100 100 100 100
100 94 89 11 31 81 59 23 59 94 87 58 51 73 10 42 82 100 100 25 54 33 99 100 100 100 100 100 100 100 100 100 100 100 100 100 100 100 100 100 100 100 100
74 24 89 63 6 37 49 5 70 81 100 98 33 18 5 5 45 79 78 100 100 100 100 100 100 100 100 100 100 100 100 100 100 100 100 100 100 100 100 100 100 100 100
97 10 5 46 80 78 70 37 87 96 91 87 91 100 19 74 84 95 100 100 100 100 100 100 100 100 100 100 100 100 100 100 100 100 100 100 100 100 100 100 100 100 100
5 6 5 7 79 82 24 69 74 92 96 74 100 100 55 100 100 100 100 100 100 100 100 100 100 100 100 100 100 100 100 100 100 100 100 100 100 100 100 100 100 100 100
5 45 35 57 71 53 38 84 92 99 99 100 100 100 100 100 100 100 100 100 100 100 100 100 100 100 100 100 100 100 100 100 100 100 100 100 100 100 100 100 100 100 100
21 36 13 68 75 89 80 100 100 100 100 100 100 100 100 100 100 100 100 100 100 100 100 100 100 100 100 100 100 100 100 100 100 100 100 100 100 100 100 100 100 100 100
56 68 70 65 68 100 100 100 100 98 88 99 100 100 100 100 100 100 100 100 100 100 100 100 100 100 100 100 100 100 100 100 100 100 100 100 100 100 100 100 100 100 100
35 97 100 100 100 100 100 86 76 99 99 65 77 87 85 88 64 86 100 100 100 100 100 100 100 100 100 100 100 100 100 100 100 100 100 100 100 100 100 100 100 100 100
74 71 100 98 100 100 100 92 82 61 80 72 35 60 74 86 75 91 97 100 100 100 100 100 100 100 100 100 100 100 100 100 100 100 100 100 100 100 100 100 100 100 100